Haro Strait: Past 24 Hour Conditions

 

Sheringham Point

03:00 AM PDT 01 October 2014
This table is a summary of hourly weather conditions for the past 24 hours.
Date / Time
(PDT)
Wind(knots) Conditions Visibility(km) Pressure(kPa) Air tempC) Relative humidity(%) Dew pointC)
01 October 2014
3:00 NW 4 N/A N/A 102.2 13 93 12
2:00 WNW 2 N/A N/A 102.2 13 92 12
1:00 NW 4 N/A N/A 102.2 13 90 11
0:00 WNW 7 N/A N/A 102.2 13 90 11
30 September 2014
23:00 WNW 8 N/A N/A 102.1 13 93 12
22:00 WNW 11 N/A N/A 102.1 13 93 12
21:00 WNW 13 N/A N/A 102.1 13 90 11
20:00 WNW 16 N/A N/A 102.1 13 91 12
19:00 WNW 18 N/A N/A 102.0 13 93 12
18:00 WNW 17 N/A N/A 102.0 13 93 12
17:00 WNW 20 N/A N/A 101.9 13 93 12
16:00 WNW 21 N/A N/A 101.9 13 92 12
15:00 WNW 18 N/A N/A 101.9 14 90 12
14:00 WNW 15 N/A N/A 102.0 13 91 12
13:00 WNW 17 N/A N/A 101.9 14 90 12
12:00 WNW 14 N/A N/A 101.9 13 95 12
11:00 WNW 15 N/A N/A 101.9 13 94 12
10:00 WNW 9 N/A N/A 101.9 12 98 12
9:00 W 9 N/A N/A 101.8 12 97 12
8:00 WNW 7 N/A N/A 101.8 12 96 12
7:00 WNW 11 N/A N/A 101.7 12 99 12
6:00 WNW 13 N/A N/A 101.7 12 99 12
5:00 W 13 N/A N/A 101.6 12 99 12
4:00 WNW 10 N/A N/A 101.6 13 99 12
3:00 WNW 10 N/A N/A 101.6 13 97 12
 
Map of Pacific - South Coast marine weather areas Tsawwassen Ferry Terminal South Nomad - 46036 Sentry Shoal - 46131 South Brooks - 46132 Halibut Bank - 46146 South Moresby - 46147 South Hecate Strait - 46185 West Sea Otter - 46204 La Perouse Bank - 46206 East Dellwood - 46207 Discovery Island Esquimalt Harbour Kelp Reefs Malahat Race Rocks Lightstation Saturna Island Sheringham Point University of Victoria Victoria Gonzales Victoria Int'l Airport Ballenas Islands Campbell River Airport Comox Airport Entrance Island Fanny Island Nanaimo Airport Port Hardy Airport Sisters Islets Estevan Point Sartine Island Solander Island Tofino Airport Grief Point Powell River Airport Sechelt Cape St.James Bella Bella Airport Bella Coola Airport Cathedral Point Herbert Island Point Atkinson Sand Heads Lightstation Vancouver Harbour Vancouver Int'l Airport West Vancouver Port Alberni Howe Sound - Pam Rocks Squamish Airport